星链-5718 (STARLINK-5718 )

导读

STARLINK-5718是美国SpaceX公司星链(Starlink)卫星互联网星座的一员,于2023年2月12日发射升空。星链计划旨在通过低轨卫星组网,为全球提供低延迟高速宽带互联网服务,覆盖偏远地区,服务商业航运、航空通信,还可支持应急救援与军事应用。 作为大规模低轨星座的组成部分,它依托猎鹰火箭入轨后运行在近地轨道,但星链卫星的密集部署也引发了太空碎片、轨道碰撞和天文观测干扰等争议。

基本信息
目录编号:
55620
目录名称:
STARLINK-5718
国际标识:
2023-020BD
轨道中心:
EARTH
卫星名称:
星链-5718
卫星全名:
星链-5718 (STARLINK-5718 )
卫星状态:
在轨 (已飞行1219 天)
发射日期:
2023-02-12 UTC
国别 :
美国 (US)
星等 :
--
轨道信息
数据来源 国际轨道数据 AOE轨道数据
星历时间 2026-06-14T21:15:55+0800
13小时前
查看轨道信息
2026-06-11T06:00:00+0800
4天前
查看轨道信息
半长轴 6861.2km 6861.2km
偏心率 0.0001363 0.0001412
轨道倾角 43.002° 43.000°
近地点辐角 264.705° 252.668°
升交点赤经 167.161° 187.696°
平近点角 95.364° 248.301°
近地点 482.127km 482.094km
远地点 483.999km 484.032km
周期 94.267分钟 94.267分钟
每日圈数 15.275756 15.275755
详细信息
固有亮度:
5
最大亮度:
2.5
卫星平台:
Starlink v1.5
覆盖范围:
全球
运营商:
太空探索技术公司
运营商所在国:
美国
制造商(研发单位):
太空探索技术公司
制造商所在国:
美国
使用方式:
暂无
卫星简介
星链(Starlink)计划是由太空探索技术公司(SpaceX)提出的一个巨型低轨卫星互联网星座项目,计划在2019年至2024年间在太空搭建由约1.2万颗卫星组成的“星链”网络,其中1584颗将部署在地球上空550千米处的近地轨道,并从2020年开始工作。该卫星仍在工作。
2D轨道图
3D轨道图
轨道高度分析图
轨道倾角分析图
轨道综合分析图
查看轨道综合分析图